Regional Weather Roundup
Issued by NWS Wakefield, VA

Home | Current Version | Previous Version | Graphics & Text | Print | Product List | Glossary On
Versions: 1 2 3 4 5 6 7 8 9 10 11 12 13 14 15 16 17 18 19 20 21 22 23 24 25 26 27 28 29 30 31 32 33 34 35 36 37 38 39 40 41 42 43 44 45 46 47 48 49 50
000
ASUS41 KAKQ 301210
RWRAKQ

REGIONAL WEATHER ROUNDUP
NATIONAL WEATHER SERVICE WAKEFIELD VA
700 AM EST FRI JAN 30 2015

Note: "fair" indicates few or no clouds below 12,000 feet with no
significant weather and/or obstructions to visibility. * = Denotes
station may not report precipitation (e.g., rain,snow,etc.),
thunder or fog.

VAZ042-051-052>054-056-301300-
NORTHERN VIRGINIA

CITY           SKY/WX    TMP DP  RH WIND       PRES   REMARKS
WASH NATIONAL  PTCLDY    40  23  50 NW15G28   29.99R
DULLES         MOCLDY    35  22  58 NW13G22   29.99R
FORT BELVOIR   MOCLDY    40  26  56 NW13      30.00R
QUANTICO       MOCLDY    41  23  48 NW16G36   30.01R
FREDERICKSBRG* CLOUDY    41  29  63 NW12G17   29.98R
STAFFORD*      CLOUDY    39  27  60 NW8       30.02R
WARRENTON      CLOUDY    39  31  73 NW12      29.99R
CULPEPER*      CLOUDY    39  27  60 N10G16    30.00R
MANASSAS*      CLOUDY    37  27  65 NW16      29.99R
LEESBURG*      CLOUDY    36  28  75 NW9       30.00R
WINCHESTER     CLOUDY    36  23  60 NW13      29.98R
FRONT ROYAL*   CLOUDY    36  23  60 NW8       29.99R
LURAY*         CLOUDY    37  27  65 N13G22    29.99R
$$

VAZ048-049-060>072-079>083-301300-
CENTRAL AND SOUTH CENTRAL VIRGINIA

CITY           SKY/WX    TMP DP  RH WIND       PRES   REMARKS
RICHMOND       CLOUDY    41  27  57 NW5       29.96R
CHESTERFIELD*  CLOUDY    37  19  48 NW7       29.97R
PETERSBURG*    MOCLDY    41  29  61 NW3       29.97R
HANOVER        CLOUDY    40  26  57 NW7       29.97R
TAPPAHANNOCK*  CLOUDY    37  27  65 CALM      29.96R
QUINTON*       CLOUDY    40  27  58 NW5       29.95R
CHARLOTTSVILLE CLOUDY    40  22  48 W3        29.98R
GORDONSVILLE*  CLOUDY    41  23  49 NW7G21    29.97R
ORANGE*        CLOUDY    41  27  56 W9        29.99R
LOUISA*        MOCLDY    41  27  56 NW6       29.95R
BUMPASS*       PTSUNNY   38  26  62 W3        29.97R
FARMVILLE*     MOCLDY    42  26  53 W3        29.98R
CREWE*         FAIR      41  26  54 NW13G20   29.97R
FORT PICKETT*  FAIR      40  27  59 NW10G16   29.97R
CHASE CITY*    FAIR      42  28  57 W9G18     29.99R
CLARKSVILLE*   FAIR      41  27  56 NW15G24   29.99R
SOUTH HILL*    PTCLDY    40  28  62 NW7       30.03R
LAWRENCEVILLE* FAIR      40  30  65 NW3       29.96R
EMPORIA*       CLOUDY    39  30  70 W3        29.98R
$$

VAZ088>098-301300-
SOUTHEAST VIRGINIA

CITY           SKY/WX    TMP DP  RH WIND       PRES   REMARKS
NORFOLK        LGT RAIN  40  33  76 CALM      29.94R
VIRGINIA BEACH LGT RAIN  41  36  82 W9        29.94R
NORFOLK NAVAL  LGT RAIN  43  33  68 CALM      29.97R
WEST POINT*    CLOUDY    42  26  54 CALM      29.96S
SALUDA*        CLOUDY    37  32  81 NW3       29.94R
NEWPORT NEWS   CLOUDY    40  34  79 N5        29.95R
LANGLEY AFB    CLOUDY    37  34  87 N2        29.94S
FORT EUSTIS    CLOUDY    41  31  67 N5        29.93S
WILLIAMSBURG*    N/A     43  30  61 CALM      29.96R
HR EXEC AP*    CLOUDY    37  34  87 W6        29.98R
FRANKLIN*      LGT RAIN  39  31  73 W3        29.96R
WAKEFIELD      CLOUDY    42  27  55 NW5       29.95R
$$

VAZ020-022-025-037-045-301300-
WEST CENTRAL AND SOUTHWEST VIRGINIA

CITY           SKY/WX    TMP DP  RH WIND       PRES   REMARKS
STAUNTON*      CLOUDY    37  22  55 NW6G17    30.00R
WAYNESBORO*    CLOUDY    35  21  56 NW10G21   29.97R
HOT SPRINGS VA LGT SNOW  23  22  97 NW24G40   29.86R VSB 1   WCI   7
LYNCHBURG      MOCLDY    38  20  48 NW9G23    30.02R
DANVILLE       CLOUDY    42  24  49 NW13G22   30.04R
SOUTH BOSTON*  CLOUDY    41  22  46 NW16G28   30.02R
MARTINSVILLE   CLOUDY    40  23  51 NW16G24   30.09R
ROANOKE        CLOUDY    36  20  52 W22G33    30.06R WCI  25
BLACKSBURG     FLURRIES  31  22  71 NW12G20   30.07R WCI  22
DUBLIN*        LGT SNOW  33  26  75 W14       30.09R WCI  23
MARION*        CLOUDY    30  21  69 W24G40    30.10R WCI  16
HILLSVILLE*    CLOUDY    29  23  76 NW20G29   30.04R WCI  17
RICHLANDS*     FLURRIES  27  22  82 NW12G18   30.13R WCI  17
WISE*          FLURRIES  28  23  80 W9        30.18R
ABINGDON*      CLOUDY    32  24  72 NW14G20   30.17R WCI  22
$$

MDZ021>025-VAZ099-100-301300-
SOUTHERN MARYLAND AND THE DELMARVA PENINSULA

CITY           SKY/WX    TMP DP  RH WIND       PRES   REMARKS
PATUXENT RIVER MOCLDY    39  28  64 NW14      29.94R
BAY BRIDGE APT   N/A     37  28  70 NW13      29.95R
LEONARDTOWN    CLOUDY    39  27  60 NW5       29.96R
DOVER          CLOUDY    37  28  70 NW14      29.91R
GEORGETOWN     CLOUDY    39  27  62 VRB5      29.92R
EASTON         CLOUDY    39  30  70 NW10      29.97R
CAMBRIDGE      CLOUDY    41  30  65 NW9G16    29.93R
SALISBURY      CLOUDY    41  30  65 W8        29.92R
OCEAN CITY     CLOUDY    36  32  85 NW7       29.91R
WALLOPS ISLAND LGT RAIN  36  33  89 NW6       29.93S
ACCOMACK*      CLOUDY    36  32  87 NW5       29.93S
$$

NCZ012>017-030>032-301300-
NORTH CENTRAL AND EASTERN NORTH CAROLINA

CITY           SKY/WX    TMP DP  RH WIND       PRES   REMARKS
ROANOKE RAPIDS CLOUDY    37  34  87 SW3       29.98R
RALEIGH        PTCLDY    41  27  57 VRB5      30.00R
ELIZABETH CITY RAIN      42  37  82 W9        29.95R
AHOSKIE*       RAIN      38  35  89 CALM      29.99R
EDENTON*       LGT RAIN  43  39  86 W7        29.97R
CURRITUCK*     LGT RAIN  42  37  79 W6        29.95R
KILL DEVIL HLS DRIZZLE   46  38  73 W13G20    29.92R
MANTEO         CLOUDY    46  37  71 W13G21    29.94R
CAPE HATTERAS  CLOUDY    50  44  80 W10       29.94F
TARBORO*       DRIZZLE   43  34  70 W5        30.00R
GOLDSBORO      CLOUDY    44  43  97 W5        29.98R
WASHINGTON     RAIN      43  40  86 W5        29.98R
GREENVILLE     CLOUDY    43  37  81 W3        30.00R
NEW BERN       LGT RAIN  50  41  71 W8G17     29.97S
WILMINGTON     LGT RAIN  49  44  83 W8        29.97S
$$

VAZ048-301300-
ELSEWHERE

CITY           SKY/WX    TMP DP  RH WIND       PRES   REMARKS
HARRISBURG PA  FLURRIES  32  27  81 MISG      29.93R
BALTIMORE      PTCLDY    34  26  72 W7        29.95R
ANNAPOLIS      MOCLDY    38  27  64 W9        29.95R
ANDREWS AFB    CLEAR     37  26  62 NW17G26   29.96R
PHILADELPHIA   FLURRIES  35  25  66 NW13      29.90R
HENDERSON NC   PTCLDY    41  25  53 NW9G18    29.99R
GREENSBORO     MOCLDY    41  23  48 NW21G28   30.03R
ROCKY MOUNT    CLOUDY    43  31  62 NW3       29.99R
$$

VAZ100-301300-
MARINE

STATION/POSITION TIME  TEMP    WIND        PRES    WAVE   SWELL
                       AIR SEA DIR/SP/G            HT/PER HT/PER
                 (UTC) (F)     (DEG/KT/KT) (MB)    (FT/S) (FT/S)
BRANDYWINE LGT   1200   38 36  320/ 11/ 13 1012.5R
CAPE MAY NJ      1200   37 37              1011.8S
LEWES DE         1200   38 36  310/ 12/ 14 1012.4R
15NM E FENWICK I 1200   37 40              1012.1R   3/ 6
OCEAN-CITY-INLET 1200   37 38  340/  8/ 11 1012.4F
WACHAPREAGUE VA  1200   36 36  330/  2/  3 1013.4S
THOMAS POINT MD  1200   38 36  290/ 15/ 18 1015.0R
GOOSES REEF MD   1200   39     VRB 10/ 14  1012.9R
COVE POINT MD    1200   39     340/ 16/ 18 1013.7R
SOLOMONS ISLAND  1200      37                N/A
BISHOPS HEAD MD  1200   38 34  310/  8/ 10 1013.3R
PINEY POINT MD   1200          340/  8/  9   N/A
POTOMAC MD       1200   38     310/  6/  8 1012.8R
CAMBRIDGE MD     1200   39 35  310/ 12/ 14 1013.6R
LEWISETTA VA     1200   40 36  330/  7/ 10 1013.8R
RAPPAHANNOCK LGT 1200          340/  6/  7 1014.1R
STINGRAY PT      1200   38     300/  6/  6 1014.1S
YORK RVR RNG VA  1200   39     330/  4/  5 1013.4R
YORKTOWN VA      1200   41 39  350/  3/  4 1013.7S
JAMESTOWN VA     1200   42     350/  4/  6   N/A
DOMINION TERM VA 1200   40     360/  2/  5 1013.5F
KIPTOPEKE VA     1200      44  330/  5/  7   N/A
CHES BAY BRIDGE  1200   40 40  310/ 11/ 12 1013.8R
CAPE HENRY VA    1200   40     310/ 12/ 15 1012.8R
CHESAPEAKE LGHT  1100   43     290/ 20/ 23 1013.8R
WILLOUBY STN VA  1200   40     330/  5/  6 1014.1F
S CRANEY ISL VA  1200          270/  3/  5 1014.0R
CAPE HENRY BUOY  1200      43                N/A     3/11   2/11
1ST LANDING BUOY 1200   41     310/ 10/ 12 1013.7R
CAPE CHARLES BUO 1200      41                N/A     3/11   2/11
OFFSHORE WE BUOY 1200      43                N/A     3/11   2/11
64NM E OF VA BCH 1200   48 49  290/ 21/ 25 1012.4R   4/ 4   2/11
DUCK PIER NC     1200   44 44  270/ 12/ 16 1012.9R
44100 DUCK FRF   1200      44                N/A     2/11   2/11
44056 DUCK FRF   1200      43                N/A     1/12   2/12
OREGON INLET NC  1200   45 42  250/  8/  9 1013.4R
HATTERAS NC      1200   51 45  250/ 10/ 15 1014.0F


USA.gov is the U.S. government's official web portal to all federal, state and local government web resources and services.